Location: Omaha
(41.2590°N, 95.9380°W)
Time: 05:40:09
(UTC-05:00)

Vanguard 1 Rocket - Visible Passes

Search period start: 20 October 2017 00:00
Search period end: 30 October 2017 00:00
Orbit: 655 x 4222 km, 34.3° (Epoch: 19 October)

Date Brightness Start Highest point End Pass type
(mag) Time Alt. Az. Time Alt. Az. Time Alt. Az.
20 Oct 10.5 05:52:36 10° S 05:57:40 14° SSE 06:01:35 10° SE visible
21 Oct 9.7 07:04:42 10° SW 07:12:21 26° SSE 07:17:19 10° ESE visible
22 Oct 10.2 05:52:56 10° SSW 06:00:59 21° SSE 06:06:25 10° ESE visible
23 Oct 10.7 04:41:58 10° S 04:49:13 16° SSE 04:54:34 10° ESE visible
23 Oct 9.4 07:06:40 10° SW 07:15:39 33° SSE 07:21:04 10° ESE visible
24 Oct 11.1 03:34:13 10° SSE 03:37:02 11° SSE 03:39:34 10° SE visible
24 Oct 9.9 05:54:05 10° SSW 06:04:17 28° SSE 06:10:31 10° ESE visible
25 Oct 10.4 04:43:17 12° SSW 04:52:29 22° SSE 04:59:23 10° ESE visible
25 Oct 9.1 07:08:54 10° SW 07:18:55 40° S 07:24:40 10° ESE visible
26 Oct 10.8 03:36:59 16° SSE 03:40:17 17° SSE 03:47:05 10° ESE visible
26 Oct 9.6 05:55:42 10° SW 06:07:32 35° SSE 06:14:17 10° E visible
27 Oct 11.2 02:30:33 10° SE 02:30:33 10° SE 02:31:05 10° SE visible
27 Oct 10.1 04:47:54 19° SSW 04:55:43 30° SSE 05:03:31 10° ESE visible
27 Oct 9.0 07:11:20 10° WSW 07:22:10 47° S 07:28:09 10° E visible
28 Oct 10.6 03:41:21 23° SSE 03:43:27 23° SSE 03:52:00 10° ESE visible
28 Oct 9.4 05:58:42 12° SW 06:10:45 43° SSE 06:17:52 10° E visible
29 Oct 11.0 02:34:43 15° SE 02:34:43 15° SE 02:38:58 10° ESE visible
29 Oct 9.9 04:52:03 26° SSW 04:58:54 37° SSE 05:07:18 10° E visible
29 Oct 8.9 07:13:54 10° WSW 07:25:24 52° S 07:31:34 10° ESE visible
